TimeMST,TemperatureF,Dew PointF,Humidity,Sea Level PressureIn,VisibilityMPH,Wind Direction,Wind SpeedMPH,Gust SpeedMPH,PrecipitationIn,Events,Conditions,WindDirDegrees,DateUTC
12:57 AM,75.9,30.0,19,29.74,10.0,North,3.5,-,N/A,,Clear,360,2013-09-23 07:57:00
1:57 AM,75.9,30.9,19,29.74,10.0,NNW,3.5,-,N/A,,Clear,340,2013-09-23 08:57:00
2:57 AM,71.1,36.0,28,29.74,10.0,NE,3.5,-,N/A,,Clear,40,2013-09-23 09:57:00
3:57 AM,71.1,36.0,28,29.75,10.0,Calm,Calm,-,N/A,,Clear,0,2013-09-23 10:57:00
4:57 AM,71.1,33.1,25,29.75,10.0,North,4.6,-,N/A,,Clear,360,2013-09-23 11:57:00
5:57 AM,70.0,33.1,26,29.77,10.0,North,3.5,-,N/A,,Clear,350,2013-09-23 12:57:00
6:57 AM,73.0,30.9,21,29.79,10.0,NNE,9.2,-,N/A,,Clear,20,2013-09-23 13:57:00
7:57 AM,78.1,30.0,17,29.81,10.0,North,8.1,-,N/A,,Clear,10,2013-09-23 14:57:00
8:57 AM,82.9,32.0,16,29.83,10.0,NNE,10.4,-,N/A,,Clear,20,2013-09-23 15:57:00
9:57 AM,86.0,33.1,15,29.83,10.0,NE,10.4,-,N/A,,Clear,40,2013-09-23 16:57:00
10:57 AM,89.1,32.0,13,29.84,10.0,NE,9.2,-,N/A,,Clear,40,2013-09-23 17:57:00
11:57 AM,91.0,30.9,12,29.83,10.0,East,6.9,-,N/A,,Clear,100,2013-09-23 18:57:00
12:57 PM,93.0,26.1,9,29.82,10.0,East,8.1,17.3,N/A,,Clear,80,2013-09-23 19:57:00
1:57 PM,93.0,26.1,9,29.80,10.0,Variable,5.8,-,N/A,,Clear,0,2013-09-23 20:57:00
2:57 PM,95.0,26.1,9,29.78,10.0,East,5.8,-,N/A,,Clear,100,2013-09-23 21:57:00
3:57 PM,95.0,26.1,9,29.77,10.0,Variable,3.5,-,N/A,,Clear,0,2013-09-23 22:57:00
4:57 PM,96.1,28.0,9,29.77,10.0,Calm,Calm,-,N/A,,Clear,0,2013-09-23 23:57:00
5:57 PM,93.9,28.9,10,29.77,10.0,SSW,5.8,-,N/A,,Clear,210,2013-09-24 00:57:00
6:57 PM,90.0,36.0,15,29.77,10.0,SSW,6.9,-,N/A,,Clear,200,2013-09-24 01:57:00
7:57 PM,86.0,34.0,16,29.79,10.0,WSW,4.6,-,N/A,,Clear,250,2013-09-24 02:57:00
8:57 PM,84.0,35.1,17,29.81,7.0,Calm,Calm,-,N/A,,Clear,0,2013-09-24 03:57:00
9:57 PM,84.0,41.5,22,29.82,7.0,Calm,Calm,-,N/A,,Clear,0,2013-09-24 04:57:00
10:57 PM,79.0,42.1,27,29.82,7.0,Calm,Calm,-,N/A,,Clear,0,2013-09-24 05:57:00
11:57 PM,78.1,41.0,27,29.82,10.0,Calm,Calm,-,N/A,,Unknown,0,2013-09-24 06:57:00